4XDNS LLHZ-LLHA

Flight info

Callsign 4XDNS
Flight time 0h 26m
Altitude 1500
Route SFAIM VINGT PELEG OLGAH HADRA FRDIS BOREN HOTRM DAROM GALIM
Aircraft C172/L-VD/A

Departure

Time 2026-04-21 14:28
Airport Herzliya Airport (LLHZ)

Arrival

Time 2026-04-21 14:55
Airport Uri Michaeli Haifa International Airport (LLHA)
Time Latitude Longitude Altitude Speed Heading
2026-04-21 14:22 32.18033 34.83269 101 ft 0 kts 20°
2026-04-21 14:24 32.18035 34.83270 102 ft 4 kts
2026-04-21 14:24 32.18041 34.83271 102 ft 4 kts 14°
2026-04-21 14:25 32.18044 34.83311 102 ft 9 kts 137°
2026-04-21 14:25 32.18009 34.83403 105 ft 11 kts 110°
2026-04-21 14:25 32.17974 34.83527 108 ft 22 kts 109°
2026-04-21 14:25 32.17928 34.83682 114 ft 17 kts 110°
2026-04-21 14:26 32.17895 34.83792 120 ft 10 kts 108°
2026-04-21 14:26 32.17893 34.83820 121 ft 0 kts 68°
2026-04-21 14:27 32.17923 34.83818 123 ft 20 kts 302°
2026-04-21 14:27 32.18030 34.83472 124 ft 63 kts 292°
2026-04-21 14:27 32.18277 34.83022 249 ft 68 kts 311°
2026-04-21 14:27 32.18618 34.82657 370 ft 69 kts 322°
2026-04-21 14:28 32.18975 34.82281 457 ft 67 kts 317°
2026-04-21 14:28 32.19305 34.81967 565 ft 64 kts 315°
2026-04-21 14:28 32.19647 34.81612 648 ft 61 kts 310°
2026-04-21 14:28 32.20006 34.81297 746 ft 71 kts 333°
2026-04-21 14:29 32.20463 34.81198 966 ft 66 kts 355°
2026-04-21 14:29 32.20940 34.81307 1210 ft 72 kts
2026-04-21 14:29 32.21445 34.81444 1488 ft 75 kts
2026-04-21 14:29 32.22010 34.81630 1668 ft 90 kts
2026-04-21 14:30 32.22610 34.81869 1577 ft 100 kts 17°
2026-04-21 14:30 32.23195 34.82017 1651 ft 90 kts 352°
2026-04-21 14:30 32.23806 34.81984 1585 ft 85 kts 358°
2026-04-21 14:30 32.24308 34.82114 1626 ft 72 kts
2026-04-21 14:31 32.24790 34.82295 1545 ft 75 kts 14°
2026-04-21 14:31 32.25262 34.82512 1521 ft 71 kts 13°
2026-04-21 14:31 32.25723 34.82723 1503 ft 68 kts
2026-04-21 14:31 32.26216 34.82799 1601 ft 75 kts
2026-04-21 14:32 32.26741 34.82948 1701 ft 79 kts
2026-04-21 14:32 32.27281 34.83079 1787 ft 80 kts
2026-04-21 14:32 32.27801 34.83214 1946 ft 74 kts
2026-04-21 14:32 32.28429 34.83396 1716 ft 93 kts
2026-04-21 14:33 32.29030 34.83478 1842 ft 88 kts
2026-04-21 14:33 32.29665 34.83542 1610 ft 97 kts
2026-04-21 14:33 32.30271 34.83787 1704 ft 88 kts
2026-04-21 14:33 32.30875 34.83966 1731 ft 93 kts
2026-04-21 14:34 32.31620 34.84170 1558 ft 116 kts
2026-04-21 14:34 32.32394 34.84359 1684 ft 110 kts
2026-04-21 14:34 32.33154 34.84621 1703 ft 115 kts 13°
2026-04-21 14:34 32.33962 34.84889 1588 ft 123 kts
2026-04-21 14:35 32.34781 34.85172 1508 ft 129 kts
2026-04-21 14:35 32.35627 34.85246 1571 ft 116 kts 349°
2026-04-21 14:35 32.36407 34.85250 1768 ft 106 kts
2026-04-21 14:35 32.37125 34.85408 1703 ft 117 kts
2026-04-21 14:36 32.37979 34.85692 1556 ft 128 kts 16°
2026-04-21 14:36 32.38799 34.85979 1652 ft 116 kts 11°
2026-04-21 14:36 32.39583 34.86310 1490 ft 124 kts 14°
2026-04-21 14:36 32.40329 34.86596 1465 ft 103 kts
2026-04-21 14:37 32.41016 34.86779 1481 ft 99 kts
2026-04-21 14:37 32.41674 34.86980 1466 ft 101 kts 11°
2026-04-21 14:37 32.42342 34.87224 1419 ft 102 kts 10°
2026-04-21 14:37 32.43020 34.87536 1577 ft 106 kts 17°
2026-04-21 14:38 32.43653 34.88006 1633 ft 122 kts 36°
2026-04-21 14:38 32.44186 34.88785 1627 ft 120 kts 45°
2026-04-21 14:38 32.44685 34.89548 1683 ft 114 kts 46°
2026-04-21 14:38 32.45158 34.90316 1611 ft 124 kts 49°
2026-04-21 14:39 32.45750 34.91045 1467 ft 125 kts 28°
2026-04-21 14:39 32.46508 34.91435 1389 ft 116 kts 14°
2026-04-21 14:39 32.47267 34.91818 1363 ft 110 kts 18°
2026-04-21 14:39 32.47964 34.92118 1364 ft 112 kts 11°
2026-04-21 14:40 32.48683 34.92406 1341 ft 100 kts 14°
2026-04-21 14:40 32.49333 34.92686 1305 ft 98 kts 13°
2026-04-21 14:40 32.49975 34.92898 1480 ft 94 kts
2026-04-21 14:40 32.50625 34.93077 1501 ft 98 kts
2026-04-21 14:41 32.51316 34.93070 1494 ft 101 kts 353°
2026-04-21 14:41 32.52009 34.93085 1458 ft 100 kts 352°
2026-04-21 14:41 32.52703 34.93076 1431 ft 102 kts 357°
2026-04-21 14:41 32.53385 34.93180 1487 ft 97 kts
2026-04-21 14:42 32.54042 34.93316 1570 ft 95 kts
2026-04-21 14:42 32.54742 34.93342 1542 ft 103 kts 356°
2026-04-21 14:42 32.55473 34.93450 1496 ft 112 kts 358°
2026-04-21 14:42 32.56239 34.93627 1578 ft 111 kts 14°
2026-04-21 14:43 32.56919 34.93996 1759 ft 109 kts 23°
2026-04-21 14:43 32.57630 34.94370 1557 ft 123 kts
2026-04-21 14:43 32.58458 34.94681 1473 ft 122 kts 13°
2026-04-21 14:43 32.59262 34.94955 1484 ft 115 kts
2026-04-21 14:44 32.60007 34.95190 1548 ft 112 kts
2026-04-21 14:44 32.60771 34.95386 1541 ft 114 kts
2026-04-21 14:44 32.61555 34.95652 1485 ft 120 kts
2026-04-21 14:44 32.62370 34.95801 1495 ft 117 kts 359°
2026-04-21 14:45 32.63182 34.95835 1557 ft 113 kts 356°
2026-04-21 14:45 32.63972 34.95872 1469 ft 119 kts 359°
2026-04-21 14:45 32.64746 34.95936 1512 ft 110 kts 359°
2026-04-21 14:45 32.65528 34.95979 1474 ft 107 kts 359°
2026-04-21 14:46 32.66267 34.96085 1456 ft 110 kts
2026-04-21 14:46 32.67017 34.96185 1482 ft 110 kts 360°
2026-04-21 14:46 32.67808 34.96281 1392 ft 114 kts
2026-04-21 14:46 32.68584 34.96479 1452 ft 105 kts 12°
2026-04-21 14:47 32.69303 34.96704 1396 ft 112 kts
2026-04-21 14:47 32.70075 34.96849 1390 ft 114 kts
2026-04-21 14:47 32.70853 34.97022 1309 ft 116 kts 356°
2026-04-21 14:47 32.71591 34.96746 1243 ft 105 kts 323°
2026-04-21 14:48 32.72152 34.96310 1422 ft 89 kts 322°
2026-04-21 14:48 32.72652 34.95919 1495 ft 86 kts 322°
2026-04-21 14:48 32.73146 34.95470 1473 ft 92 kts 319°
2026-04-21 14:48 32.73729 34.95072 1373 ft 104 kts 333°
2026-04-21 14:49 32.74439 34.94928 1444 ft 96 kts 353°
2026-04-21 14:49 32.75134 34.94900 1417 ft 99 kts 352°
2026-04-21 14:49 32.75800 34.94889 1469 ft 98 kts 348°
2026-04-21 14:49 32.76485 34.94850 1510 ft 98 kts 352°
2026-04-21 14:50 32.76930 34.94831 1578 ft 95 kts 352°
2026-04-21 14:50 32.77829 34.94786 1484 ft 105 kts 349°
2026-04-21 14:50 32.78522 34.94767 1598 ft 98 kts 355°
2026-04-21 14:50 32.79157 34.94828 1494 ft 90 kts
2026-04-21 14:51 32.79800 34.94954 1451 ft 94 kts
2026-04-21 14:51 32.80417 34.95094 1465 ft 87 kts
2026-04-21 14:51 32.80986 34.95223 1495 ft 79 kts
2026-04-21 14:51 32.81524 34.95334 1456 ft 83 kts 343°
2026-04-21 14:52 32.82131 34.95351 1486 ft 94 kts
2026-04-21 14:52 32.82688 34.95687 1686 ft 89 kts 36°
2026-04-21 14:52 32.83173 34.96334 1584 ft 110 kts 48°
2026-04-21 14:52 32.83545 34.97147 1617 ft 114 kts 64°
2026-04-21 14:53 32.83688 34.98031 1622 ft 105 kts 87°
2026-04-21 14:53 32.83488 34.98901 1506 ft 115 kts 107°
2026-04-21 14:53 32.83274 34.99798 1512 ft 109 kts 99°
2026-04-21 14:53 32.83249 35.00687 1403 ft 107 kts 81°
2026-04-21 14:54 32.83293 35.01587 1178 ft 117 kts 81°
2026-04-21 14:54 32.83331 35.02577 846 ft 113 kts 91°
2026-04-21 14:54 32.83123 35.03382 663 ft 98 kts 115°
2026-04-21 14:54 32.82584 35.03780 451 ft 89 kts 187°
2026-04-21 14:55 32.81981 35.03960 199 ft 88 kts 166°
2026-04-21 14:55 32.81450 35.04189 30 ft 71 kts 162°
2026-04-21 14:55 32.81081 35.04338 21 ft 37 kts 165°
2026-04-21 14:55 32.81018 35.04386 22 ft 7 kts
2026-04-21 14:56 32.81093 35.04347 21 ft 24 kts 340°
2026-04-21 14:56 32.81229 35.04281 24 ft 23 kts 336°
2026-04-21 14:56 32.81378 35.04215 24 ft 25 kts 345°
2026-04-21 14:56 32.81469 35.04226 28 ft 11 kts 65°
2026-04-21 14:57 32.81495 35.04308 23 ft 11 kts 69°
2026-04-21 14:57 32.81510 35.04365 22 ft 6 kts 74°
2026-04-21 14:57 32.81521 35.04375 22 ft 3 kts 348°
2026-04-21 14:57 32.81525 35.04372 22 ft 0 kts 317°